STARLINK-34576, 64701

Orbit data source: Space-Track

STARLINK-34576, 64701 is a payload satellite owned by SpaceX/Seattle (US) in LEO that was launched on Sat, 28 Jun 2025 UTC via an FALCON 9 launch vehicle from the Air Force Western Test Range (AFWTR). Payload-class satellites include a variety of spacecraft equipped with specific instruments for various scientific and technological missions. These include communications satellites like Starlink; space stations such as the ISS; scientific satellites like the Hubble; Earth observation satellites from companies like Planet Labs, Umbra, and HawkEye 360; GPS; miniature CubeSats for education and research; and military/defense satellites.

Loading next visibility...
Identifier
64701, 2025-142F
Orbit
LEO
Country
Flag of USUS
Related business
Manufacturer
SpaceX/Seattle
Mission
Operational Commercial Communications
Bus & Motor
STARLINK V2MO, Unknown motor
Mass
575 kg wet, ~530 kg dry
Launch date (UTC)
2025-06-28 (1 year ago)
Launch vehicle
FALCON 9
Launch site
Air Force Western Test Range (AFWTR)
Object type
Payload
Rocket body
Debris
Shape & HBR
Box + 1 Pan, 17.7 m
Radar Cross Section
41.120 m², Large (>1 m²)

Expand to show TLE details & history
Last TLE update: 12 hours ago

TLE from 12 hours ago
0 STARLINK-34576
1 64701U 25142F   26264.22152636  .00015764  00000-0  55141-3 0  9991
2 64701  70.0002 178.8690 0003412 263.9438  96.1348 15.29595092 68814
Epoch: 2026-09-21T05:18Z
TLE epoch observation values (Epoch: 2026-09-21T05:18:59.877Z)
Latitude
-0.00006°
Longitude
99.01502°
Altitude
479.73 km
Speed
7.626 km/s
True Right ascension
11h 55m 28s
True Declination
0° 00' 00"
Sunlit
Object was in daylight at epoch
Visualization orbit readout
Latitude
Unknown
Longitude
Unknown
Altitude
Unknown
Speed
Unknown
Apparent Right ascension
Unknown
Apparent Declination
Unknown
Sunlit
N/A
Visualization observer readout
Local Sidereal Time
09:57:18
Azimuth
Unknown
Elevation
Unknown
Doppler factor
Unknown
Orbital elements
Apogee altitude
477.28 km
Perigee altitude
472.603 km
Semi-major axis
6,853.078 km
Eccentricity
0.00034
Inclination
70.0002°
RAAN
178.869°
Arg. of periapsis
263.9438°
True anomaly
96.17367°
Mean anomaly
96.1348°
Eccentric anomaly
96.15424°
Mean motion
3.82573 °/min
Orbital period
94.1 mins
BSTAR
0.00055141
Loading maneuver chart data...
Computing Atmospheric mass density...
Loading historical data...
Loading historical data...
Loading historical data...
Loading historical data...
Loading historical data...
Loading historical data...
Loading historical data...

Documentation

Showing up to 5 results
|